This demonstration page uses our WeatherBlox Daily Observations layout. Learn more.

Left ArrowRight Arrow

39.01783, -85.05884

Hourly Observations for March 12, 2015

Temp ( °F °C ) Dew Point ( °F °C ) Humidity (%) Winds ( mph kmh ) Pressure ( in mb ) Visibility ( mi km ) Precip ( " mm )
12:17 am 00:17 Clear with Mist and Fog 45 7 41 5 87 87 NE 7 11 30.42 1030 3 4 0.00 0.00
12:52 am 00:52 Mostly Clear with Mist and Fog 44 6.7 40 4.4 85 85 ENE 6 9 30.38 1029 3 4 0.00 0.00
1:52 am 01:52 Mostly Cloudy with Mist and Fog 43 6.1 39 3.9 86 86 NNE 12 19 30.38 1029 3 4 0.00 0.00
2:15 am 02:15 Mostly Cloudy with Haze 43 6 37 3 81 81 NNE 6 9 30.42 1030 3 5 0.00 0.00
2:52 am 02:52 Mostly Cloudy with Mist and Fog 42 5.6 38 3.3 85 85 NE 6 9 30.39 1029 3 4 0.00 0.00
3:52 am 03:52 Mostly Cloudy with Mist and Fog 41 5 38 3.3 89 89 ENE 8 13 30.40 1030 2 3 0.00 0.00
4:52 am 04:52 Mostly Cloudy with Mist and Fog 40 4.4 37 2.8 89 89 ENE 8 13 30.42 1030 2 3 0.00 0.00
5:52 am 05:52 Mostly Cloudy with Mist and Fog 39 3.9 35 1.7 86 86 ENE 9 15 30.45 1031 3 5 0.00 0.00
6:52 am 06:52 Mostly Cloudy with Haze 38 3.3 33 0.6 83 83 ENE 12 19 30.46 1032 5 8 0.00 0.00
7:52 am 07:52 Mostly Cloudy with Haze 37 2.8 32 0 82 82 E 9 15 30.47 1032 6 10 0.00 0.00
8:52 am 08:52 Mostly Cloudy with Haze 38 3.3 32 0 79 79 E 9 15 30.48 1032 5 8 0.00 0.00
9:52 am 09:52 Mostly Cloudy 42 5.6 31 -0.6 65 65 E 13 20 30.49 1033 7 11 0.00 0.00
10:52 am 10:52 Mostly Cloudy 45 7.2 32 0 61 61 E 14 22 30.50 1033 10 16 0.00 0.00
11:52 am 11:52 Mostly Cloudy 49 9.4 31 -0.6 50 50 E 18 30 30.52 1034 10 16 0.00 0.00
12:52 pm 12:52 Mostly Cloudy 53 11.7 31 -0.6 43 43 E 13 20 30.50 1033 10 16 0.00 0.00
1:52 pm 13:52 Mostly Cloudy 55 12.8 30 -1.1 38 38 E 13 20 30.48 1032 10 16 0.00 0.00
2:52 pm 14:52 Mostly Cloudy 57 13.9 29 -1.7 34 34 E 10 17 30.45 1031 10 16 0.00 0.00
3:52 pm 15:52 Mostly Cloudy 59 15 29 -1.7 32 32 ENE 13 20 30.42 1030 10 16 0.00 0.00
4:52 pm 16:52 Mostly Cloudy 60 15.6 30 -1.1 32 32 ENE 13 20 30.41 1030 10 16 0.00 0.00
5:52 pm 17:52 Mostly Cloudy 59 15 31 -0.6 35 35 E 15 24 30.40 1029 10 16 0.00 0.00
6:52 pm 18:52 Mostly Cloudy 57 13.9 30 -1.1 36 36 E 13 20 30.40 1029 10 16 0.00 0.00
7:52 pm 19:52 Partly Cloudy 52 11.1 32 0 47 47 E 9 15 30.39 1029 10 16 0.00 0.00
8:52 pm 20:52 Partly Cloudy 51 10.6 29 -1.7 43 43 E 12 19 30.39 1029 10 16 0.00 0.00
9:52 pm 21:52 Partly Cloudy 49 9.4 27 -2.8 43 43 E 10 17 30.37 1029 10 16 0.00 0.00
10:52 pm 22:52 Mostly Cloudy 49 9.4 27 -2.8 43 43 E 9 15 30.37 1028 10 16 0.00 0.00
11:52 pm 23:52 Cloudy 49 9.4 28 -2.2 44 44 E 9 15 30.35 1028 10 16 0.00 0.00

Powered by AerisWeather